TimeEST,TemperatureF,Dew PointF,Humidity,Sea Level PressureIn,VisibilityMPH,Wind Direction,Wind SpeedMPH,Gust SpeedMPH,PrecipitationIn,Events,Conditions,WindDirDegrees,DateUTC
12:15 AM,53.6,37.4,54,30.42,10.0,ESE,4.6,-,N/A,,Overcast,110,2013-01-11 05:15:00
12:35 AM,51.8,37.4,58,30.41,10.0,East,6.9,-,N/A,,Overcast,100,2013-01-11 05:35:00
12:55 AM,50.0,39.2,66,30.39,10.0,East,5.8,-,N/A,,Overcast,90,2013-01-11 05:55:00
1:15 AM,50.0,37.4,62,30.39,10.0,East,4.6,-,N/A,,Mostly Cloudy,100,2013-01-11 06:15:00
1:35 AM,50.0,37.4,62,30.38,10.0,East,8.1,-,N/A,,Overcast,90,2013-01-11 06:35:00
1:55 AM,50.0,35.6,58,30.37,10.0,East,6.9,-,N/A,,Overcast,90,2013-01-11 06:55:00
2:15 AM,50.0,33.8,54,30.38,10.0,East,3.5,-,N/A,,Overcast,90,2013-01-11 07:15:00
2:35 AM,50.0,35.6,58,30.38,10.0,East,4.6,-,N/A,,Overcast,90,2013-01-11 07:35:00
2:55 AM,48.2,37.4,66,30.37,10.0,East,5.8,-,N/A,,Overcast,80,2013-01-11 07:55:00
3:15 AM,46.4,39.2,76,30.37,8.0,ENE,4.6,-,0.01,,Overcast,60,2013-01-11 08:15:00
3:35 AM,46.4,39.2,76,30.37,6.0,Calm,Calm,-,0.02,,Overcast,0,2013-01-11 08:35:00
3:55 AM,44.6,39.2,81,30.35,8.0,Calm,Calm,-,0.03,,Overcast,0,2013-01-11 08:55:00
4:15 AM,44.6,41.0,87,30.34,9.0,East,5.8,-,N/A,,Overcast,90,2013-01-11 09:15:00
4:35 AM,44.6,41.0,87,30.34,9.0,Calm,Calm,-,0.01,,Overcast,0,2013-01-11 09:35:00
4:55 AM,44.6,41.0,87,30.35,7.0,Calm,Calm,-,0.01,,Overcast,0,2013-01-11 09:55:00
5:15 AM,44.6,41.0,87,30.34,4.0,ENE,3.5,-,0.01,,Overcast,70,2013-01-11 10:15:00
5:35 AM,44.6,39.2,81,30.34,6.0,ENE,4.6,-,0.01,,Overcast,60,2013-01-11 10:35:00
5:55 AM,44.6,41.0,87,30.33,3.0,East,6.9,-,0.02,,Overcast,80,2013-01-11 10:55:00
6:15 AM,44.6,41.0,87,30.33,3.0,ENE,8.1,-,0.02,,Overcast,70,2013-01-11 11:15:00
6:35 AM,44.6,41.0,87,30.32,5.0,ENE,8.1,-,0.04,,Overcast,70,2013-01-11 11:35:00
6:55 AM,44.6,39.2,81,30.34,4.0,Calm,Calm,-,0.05,,Overcast,0,2013-01-11 11:55:00
7:35 AM,42.8,39.2,87,30.35,6.0,ENE,5.8,-,0.02,,Overcast,70,2013-01-11 12:35:00
7:55 AM,44.6,39.2,81,30.34,5.0,ENE,8.1,-,0.02,,Overcast,70,2013-01-11 12:55:00
8:15 AM,42.8,39.2,87,30.34,4.0,East,3.5,-,N/A,,Overcast,80,2013-01-11 13:15:00
8:35 AM,42.8,39.2,87,30.34,4.0,ENE,5.8,-,N/A,,Overcast,60,2013-01-11 13:35:00
8:55 AM,42.8,39.2,87,30.35,5.0,Calm,Calm,-,N/A,,Overcast,0,2013-01-11 13:55:00
9:15 AM,44.6,41.0,87,30.35,4.0,NE,3.5,-,N/A,,Overcast,50,2013-01-11 14:15:00
9:35 AM,44.6,41.0,87,30.34,5.0,East,3.5,-,N/A,,Overcast,90,2013-01-11 14:35:00
9:55 AM,44.6,41.0,87,30.34,5.0,Calm,Calm,-,N/A,,Overcast,0,2013-01-11 14:55:00
10:15 AM,44.6,41.0,87,30.34,5.0,NE,3.5,-,N/A,,Overcast,40,2013-01-11 15:15:00
10:35 AM,44.6,42.8,93,30.33,5.0,Calm,Calm,-,N/A,,Overcast,0,2013-01-11 15:35:00
10:55 AM,44.6,42.8,93,30.32,5.0,ENE,5.8,-,N/A,,Overcast,70,2013-01-11 15:55:00
11:15 AM,46.4,42.8,87,30.31,5.0,East,3.5,-,N/A,,Overcast,90,2013-01-11 16:15:00
11:35 AM,46.4,42.8,87,30.29,4.0,East,3.5,-,N/A,,Overcast,100,2013-01-11 16:35:00
11:55 AM,46.4,44.6,93,30.28,2.0,Calm,Calm,-,N/A,,Overcast,0,2013-01-11 16:55:00
12:15 PM,46.4,44.6,93,30.27,1.5,Calm,Calm,-,N/A,,Overcast,0,2013-01-11 17:15:00
12:55 PM,46.4,44.6,93,30.25,1.2,Calm,Calm,-,N/A,,Overcast,0,2013-01-11 17:55:00
1:15 PM,48.2,44.6,87,30.23,1.8,Calm,Calm,-,N/A,,Overcast,0,2013-01-11 18:15:00
1:35 PM,48.2,46.4,93,30.22,1.5,Calm,Calm,-,N/A,,Overcast,0,2013-01-11 18:35:00
1:55 PM,48.2,46.4,93,30.22,1.0,Calm,Calm,-,N/A,,Overcast,0,2013-01-11 18:55:00
2:15 PM,50.0,46.4,87,30.22,2.5,Calm,Calm,-,N/A,,Overcast,0,2013-01-11 19:15:00
2:55 PM,51.8,48.2,88,30.20,1.0,Calm,Calm,-,N/A,,Overcast,0,2013-01-11 19:55:00
3:15 PM,51.8,48.2,88,30.20,1.0,Calm,Calm,-,N/A,,Overcast,0,2013-01-11 20:15:00
3:35 PM,51.8,48.2,88,30.20,0.8,Calm,Calm,-,N/A,,Overcast,0,2013-01-11 20:35:00
3:55 PM,51.8,48.2,88,30.20,0.5,Calm,Calm,-,N/A,,Overcast,0,2013-01-11 20:55:00
4:15 PM,51.8,48.2,88,30.20,0.5,Calm,Calm,-,N/A,,Overcast,0,2013-01-11 21:15:00
4:35 PM,51.8,48.2,88,30.19,0.2,Calm,Calm,-,N/A,,Overcast,0,2013-01-11 21:35:00
4:55 PM,51.8,48.2,88,30.19,0.2,Calm,Calm,-,N/A,,Overcast,0,2013-01-11 21:55:00
5:15 PM,51.8,50.0,94,30.18,0.2,Calm,Calm,-,N/A,,Overcast,0,2013-01-11 22:15:00
5:35 PM,51.8,48.2,88,30.18,0.2,Calm,Calm,-,N/A,,Overcast,0,2013-01-11 22:35:00
5:55 PM,51.8,48.2,88,30.20,0.8,NNW,4.6,-,N/A,,Overcast,340,2013-01-11 22:55:00
6:15 PM,51.8,48.2,88,30.20,0.5,Calm,Calm,-,N/A,,Overcast,0,2013-01-11 23:15:00
6:35 PM,51.8,48.2,88,30.19,0.2,Calm,Calm,-,N/A,,Overcast,0,2013-01-11 23:35:00
6:55 PM,51.8,48.2,88,30.19,0.2,Calm,Calm,-,N/A,,Overcast,0,2013-01-11 23:55:00
7:15 PM,51.8,48.2,88,30.18,0.2,Calm,Calm,-,N/A,,Overcast,0,2013-01-12 00:15:00
7:35 PM,51.8,48.2,88,30.18,0.2,Calm,Calm,-,N/A,,Overcast,0,2013-01-12 00:35:00
7:55 PM,51.8,48.2,88,30.18,0.2,Calm,Calm,-,N/A,,Overcast,0,2013-01-12 00:55:00
8:15 PM,51.8,48.2,88,30.19,0.2,Calm,Calm,-,N/A,,Overcast,0,2013-01-12 01:15:00
8:35 PM,51.8,48.2,88,30.19,0.2,Calm,Calm,-,N/A,,Overcast,0,2013-01-12 01:35:00
8:55 PM,51.8,48.2,88,30.18,0.2,Calm,Calm,-,N/A,,Overcast,0,2013-01-12 01:55:00
9:15 PM,50.0,48.2,94,30.18,0.2,Calm,Calm,-,N/A,,Overcast,0,2013-01-12 02:15:00
9:35 PM,50.0,48.2,94,30.18,0.5,Calm,Calm,-,N/A,,Overcast,0,2013-01-12 02:35:00
9:55 PM,51.8,48.2,88,30.18,0.8,Calm,Calm,-,N/A,,Overcast,0,2013-01-12 02:55:00
10:15 PM,51.8,48.2,88,30.18,1.2,Calm,Calm,-,N/A,,Overcast,0,2013-01-12 03:15:00
10:35 PM,51.8,48.2,88,30.17,2.0,Calm,Calm,-,N/A,,Overcast,0,2013-01-12 03:35:00
10:55 PM,51.8,48.2,88,30.17,2.5,Calm,Calm,-,N/A,,Overcast,0,2013-01-12 03:55:00
11:15 PM,51.8,48.2,88,30.16,3.0,Calm,Calm,-,N/A,,Overcast,0,2013-01-12 04:15:00
11:35 PM,50.0,48.2,94,30.17,1.8,Calm,Calm,-,N/A,,Overcast,0,2013-01-12 04:35:00
11:55 PM,50.0,46.4,87,30.17,0.8,Calm,Calm,-,N/A,,Overcast,0,2013-01-12 04:55:00